535844 (2015 BY310) |
Classification: Apollo [NEO, PHA] SPK-ID: 2535844 |
[ hide orbit diagram ]
For accurate long-term ephemerides, please instead use our Horizons system.This orbit viewer was implemented using two-body methods, and hence should not be used for determining accurate long-term trajectories (over several years or decades) or planetary encounter circumstances.
Orbital Elements at Epoch 2459200.5 (2020-Dec-17.0) TDB
Reference: JPL 75 (heliocentric ecliptic J2000)
Element | Value | Uncertainty (1-sigma) | Units |
e | .3998443324379304 | 1.5117e-08 | |
a | 1.584540947093789 | 3.2919e-09 | au |
q | .9509712298825072 | 2.4504e-08 | au |
i | 4.857528229070008 | 3.8985e-06 | deg |
node | 328.7999817221837 | 1.93e-05 | deg |
peri | 229.2213629531423 | 2.3382e-05 | deg |
M | 306.9036284185311 | 5.1217e-06 | deg |
tp | 2459307.952362825638 (2021-Apr-03.45236283) | 1.0284e-05 | TDB |
period | 728.5403779027795 1.99 | 2.2703e-06 6.216e-09 | d yr |
n | .4941387065413146 | 1.5398e-09 | deg/d |
Q | 2.218110664305071 | 4.6081e-09 | au |
|
| | Orbit Determination Parameters
Additional Information
|
[ show covariance matrix ]
Physical Parameter Table
Parameter |
Symbol |
Value |
Units |
Sigma |
Reference |
Notes |
absolute magnitude |
H |
21.7 |
|
n/a |
E2015L50 |
|
rotation period |
rot_per |
0.0926702 |
h |
n/a |
LCDB (Rev. 2020-October); Warner et al., 2009 |
Published Reference List: [Pravec, P.; Wolf, M.; Sarounova, L. (2019) http://www.asu.cas.cz/~ppravec/neo.htm] |
|
535844 (2015 BY310) Discovered 2015-Jan-18 by Pan-STARRS 1 at Haleakala |
Reference: | Last Updated: 2019-05-29 |
|
[ show close-approach data ]
|